Flag for India Weather past 2 weeks in Jaisalmer, Rajasthan, India

Now
97 °F

Passing clouds.


Feels Like: 103 °F
Forecast: 81 / 102 °F
Wind: 7 mph from South

Location: Sukkur

Current Time: May 6, 2015 at 9:08:45 PM

Latest Report: May 6, 2015 at 8:30 PM


Visibility: 2 mi

Pressure: 29.59 "Hg

Humidity: 42%

Dew point: 70 °F

Location of JaisalmerLocation

Historic Weather in Jaisalmer — Graph

°F

Jaisalmer temperature yesterday

Maximum temperature yesterday: 111 °F (at 2:30 PM)
Minimum temperature yesterday: 79 °F (at 6:30 AM)
Average temperature yesterday: 96 °F

Past Weeks' High & Low Weather Summary

 TemperatureHumidityPressure
High113 °F (Apr 24, 4:30 PM)79% (Apr 26, 6:30 AM)29.77 "Hg (Apr 26, 6:30 AM)
Low73 °F (Apr 24, 7:30 AM)8% (Apr 30, 3:30 PM)29.47 "Hg (Apr 29, 5:30 PM)
Average95 °F39%29.63 "Hg
* Reported Apr 21 7:30 PM — May 6 7:30 PM, Jaisalmer, Weather by CustomWeather, © 2015

Note: Actual official high and low records may vary slightly from our data, if they occured in-between our weather recording intervals... More about our weather records

Advertising

Jaisalmer weather history for previous 24 hours

 ConditionsComfort  
Time TempWeatherWind HumidityBarometerVisibility
7:30 PM
Wed, May 6
102 °FScattered clouds.9 mph33%29.56 "Hg2 mi
6:30 PM106 °FScattered clouds.12 mph28%29.56 "Hg4 mi
5:30 PM109 °FScattered clouds.9 mph25%29.56 "Hg4 mi
4:30 PM113 °FHaze.9 mph21%29.56 "Hg4 mi
3:30 PM113 °FPassing clouds.12 mph21%29.59 "Hg4 mi
2:30 PM111 °FPassing clouds.12 mph24%29.59 "Hg4 mi
1:30 PM111 °FHaze.14 mph24%29.62 "Hg4 mi
12:30 PM109 °FHaze.12 mph27%29.65 "Hg4 mi
11:30 AM104 °FHaze.12 mph29%29.65 "Hg3 mi
10:30 AM100 °FHaze.12 mph31%29.65 "Hg3 mi
9:30 AM91 °FHaze.7 mph41%29.65 "Hg2 mi
8:30 AM86 °FHaze.7 mph49%29.62 "Hg2 mi
7:30 AM79 °FHaze.5 mph54%29.62 "Hg2 mi
6:30 AM79 °FHaze.No wind54%29.59 "Hg2 mi
4:30 AM79 °FHaze.5 mph54%29.59 "Hg2 mi
4:00 AM79 °FHaze.5 mph54%29.59 "Hg2 mi
2:30 AM82 °FHaze.5 mph51%29.62 "Hg2 mi
1:30 AM84 °FHaze.5 mph51%29.62 "Hg2 mi
12:30 AM86 °FHaze.5 mph46%29.65 "Hg2 mi
11:30 PM
Tue, May 5
88 °FHaze.5 mph43%29.65 "Hg2 mi
10:30 PM90 °FHaze.7 mph38%29.65 "Hg2 mi
9:30 PM91 °FHaze.7 mph36%29.62 "Hg2 mi
Weather by CustomWeather, © 2015

See weather overviewHow to use our weather pages